Location: Unspecified
(51.3762°N, 0.0000°E)
Time: 19:31:04
(UTC+00:00)

nSIGHT-1 - Pass Details

Date: 28 August 2019
Orbit: 336 x 343 km, 51.6° (Epoch: 18 October)

Event Time Altitude Azimuth Distance (km) Brightness Sun altitude
Exits shadow 03:21:44 42° 259° (WSW) 497 ? -15.1°
Maximum altitude 03:22:33 88° 177° (S) 343 ? -15.0°
Drops below altitude 10° 03:25:25 10° 82° (E) 1,281 ? -14.7°
Sets 03:27:24 0° 82° (E) 2,120 ? -14.4°
